Retour au catalogue

THORAD AGENA D DEB

ActifLEO
NORAD 4174·DEBRIS·🇺🇸 United States

Lancé Sep 30, 1969 depuis Vandenberg Space Force Base

Loading…

Prochains Passages (prochaines 24 heures)

TLE

FraisSource: Space-Track

Époque: Sep 13, 2026, 21:19 UTC

1  4174U 69082AS  26256.88875150  .00000410  00000-0  16218-3 0  9990
2  4174  69.9885  97.4652 0044969 200.8158 159.1138 14.35157685954564

Suivez THORAD AGENA D DEB en temps réel avec AllMySat

Download on the App Store